Location: Bangkok
(13.7500°N, 100.5170°E)
Time: 10:19:03
(UTC+07:00)

Hubble Space Telescope - Visible Passes

Search period start: 29 March 2017 00:00
Search period end: 08 April 2017 00:00
Orbit: 538 x 542 km, 28.5° (Epoch: 27 March)

Date Brightness Start Highest point End Pass type
(mag) Time Alt. Az. Time Alt. Az. Time Alt. Az.
29 Mar 3.3 04:48:27 11° NNW 04:48:58 11° N 04:50:16 10° NNE visible
30 Mar 3.4 04:38:56 10° N 04:39:10 10° N 04:39:56 10° N visible
02 Apr 3.1 05:48:56 10° NNW 05:51:52 19° NNE 05:54:49 10° ENE visible
03 Apr 2.8 05:38:42 10° NW 05:41:59 22° NNE 05:45:16 10° ENE visible
04 Apr 2.5 05:28:31 10° NW 05:32:05 28° NNE 05:35:39 10° E visible
05 Apr 2.1 05:18:21 10° NW 05:22:09 35° NNE 05:25:57 10° E visible
06 Apr 1.6 05:08:56 14° NW 05:12:11 46° NNE 05:16:10 10° E visible
06 Apr 3.4 20:29:21 10° SW 20:29:58 14° SW 20:29:58 14° SW visible
07 Apr 1.1 04:59:57 25° NW 05:02:13 64° NNE 05:06:19 10° ESE visible
07 Apr 2.4 20:19:13 10° WSW 20:21:17 28° SW 20:21:17 28° SW visible
